Forside
METAR-TAF:

METAR-TAF

Lufthavne :

Eveleth-Virginia Municipal Airport

Eveleth, Minnesota, USA

Breddekreds: 47-24N, længdekreds: 092-30W, højde: 421 m

Aktuelle vejr

Denne rapport blev lavet for 34 minutter siden, kl. 03:15 UTC
Vind stille
Temperatur -18°C
Fugtighed 84%
Tryk 1018 hPa
Sigt: 16.1 km
skyfri

METAR: KEVM 280315Z AUTO 00000KT 10SM CLR M18/M20 A3005 RMK AO2 T11831204

Tid: 21:49 (03:49 UTC)


TAF: fraværende

Vejrobservationer og prognoser fra mere end 4000 lufthavne (METAR og TAF).

De gule og røde prikker repræsenterer de meteorologiske stationer.

Flyt musen over at se navnet på stationen.

Så klik over at se vejr observationer og prognoser.

At skifte det kort: Klik på de grønne knapper med et sort kors for at zoome ind; på den grønne knap med en bindestreg for at zoome ud; eller på de grønne pile for tilstødende kort.


METAR-TAF: